Location: Unspecified
(48.2082°N, 0.0000°E)
Time: 04:51:41
(UTC+00:00)

S-56A Canister/Altair - Pass Details

Date: 23 June 2019
Orbit: 632 x 2500 km, 38.9° (Epoch: 21 July)

Event Time Altitude Azimuth Distance (km) Brightness Sun altitude
Rises 12:58:25 0° 190° (S) 5,691 12.3 62.8°
Reaches altitude 10° 13:05:24 10° 166° (SSE) 4,267 11.8 62.2°
Maximum altitude 13:09:29 13° 145° (SE) 3,756 11.4 61.9°
Drops below altitude 10° 13:13:07 10° 122° (ESE) 3,683 11.1 61.5°
Sets 13:18:02 0° 96° (E) 4,238 11.2 61.0°
